M0HZQ-1 Weather Reports


Display with metric or nautical units.
time (UTC)temp
F
wind
direction
speed
MPH
gust
MPH
rain 1hr
in
rain 24hr
in
rain mn
in
humidity
%
barometer
mb
20260510123809 58 0 0.0 0.0 0.00 0.00 0.00 50 1017.3
20260510121857 58 0 0.0 0.0 0.00 0.00 0.00 50 1017.3
20260510115950 57 0 0.0 0.0 0.00 0.00 0.00 51 1017.3
20260510114109 58 0 0.0 0.0 0.00 0.00 0.00 50 1017.6
20260510112504 58 0 0.0 0.0 0.00 0.00 0.00 50 1017.7
20260510110554 56 0 0.0 0.0 0.00 0.00 0.00 52 1017.9
20260510104934 57 0 0.0 0.0 0.00 0.00 0.00 52 1017.9
20260510103025 57 0 0.0 0.0 0.00 0.00 0.00 52 1017.9
20260510101311 57 0 0.0 0.0 0.00 0.00 0.00 54 1017.8
20260510095505 56 0 0.0 0.0 0.00 0.00 0.00 55 1017.9
20260510093629 56 0 0.0 0.0 0.00 0.00 0.00 56 1017.9
20260510091934 56 0 0.0 0.0 0.00 0.00 0.00 56 1018.2
20260510085944 56 0 0.0 0.0 0.00 0.00 0.00 57 1018.2
20260510084319 55 0 0.0 0.0 0.00 0.00 0.00 58 1018.3
20260510082654 55 0 0.0 0.0 0.00 0.00 0.00 59 1018.4
20260510081039 54 0 0.0 0.0 0.00 0.00 0.00 60 1018.4
20260510075245 53 0 0.0 0.0 0.00 0.00 0.00 62 1018.3
20260510073319 53 0 0.0 0.0 0.00 0.00 0.00 64 1018.5
20260510071324 52 0 0.0 0.0 0.00 0.00 0.00 65 1018.3
20260510065409 51 0 0.0 0.0 0.00 0.00 0.00 66 1018.4
20260510063509 51 0 0.0 0.0 0.00 0.00 0.00 66 1018.3
20260510061624 51 0 0.0 0.0 0.00 0.00 0.00 66 1018.3
20260510055644 51 0 0.0 0.0 0.00 0.00 0.00 67 1018.1
20260510053745 51 0 0.0 0.0 0.00 0.00 0.00 67 1017.9
20260510051919 51 0 0.0 0.0 0.00 0.00 0.00 67 1017.9
20260510050039 51 0 0.0 0.0 0.00 0.00 0.00 67 1017.9
20260510044059 51 0 0.0 0.0 0.00 0.00 0.00 67 1018.0
20260510042134 50 0 0.0 0.0 0.00 0.00 0.00 67 1018.1
20260510040509 50 0 0.0 0.0 0.00 0.00 0.00 67 1018.2
20260510034609 50 0 0.0 0.0 0.00 0.00 0.00 67 1018.2
20260510032749 51 0 0.0 0.0 0.00 0.00 0.00 66 1018.3
20260510031111 51 0 0.0 0.0 0.00 0.00 0.00 66 1018.4
20260510025459 50 0 0.0 0.0 0.00 0.00 0.00 66 1018.5
20260510023504 51 0 0.0 0.0 0.00 0.00 0.00 65 1018.6
20260510021823 51 0 0.0 0.0 0.00 0.00 0.00 64 1018.3
20260510020149 51 0 0.0 0.0 0.00 0.00 0.00 63 1018.5
20260510014209 51 0 0.0 0.0 0.00 0.00 0.00 61 1018.8
20260510012539 51 0 0.0 0.0 0.00 0.00 0.00 59 1018.7
20260510010631 52 0 0.0 0.0 0.00 0.00 0.00 56 1018.6
20260510005025 53 0 0.0 0.0 0.00 0.00 0.00 54 1018.5
20260510003231 54 0 0.0 0.0 0.00 0.00 0.00 52 1018.6
20260510001524 54 0 0.0 0.0 0.00 0.00 0.00 52 1018.6
20260509235709 55 0 0.0 0.0 0.00 0.00 0.00 51 1018.6
20260509233939 55 0 0.0 0.0 0.00 0.00 0.00 49 1018.7
20260509232159 56 0 0.0 0.0 0.00 0.00 0.00 47 1019.0
20260509230213 57 0 0.0 0.0 0.00 0.00 0.00 44 1018.8
20260509224614 58 0 0.0 0.0 0.00 0.00 0.00 42 1018.7
20260509222649 59 0 0.0 0.0 0.00 0.00 0.00 41 1018.7
20260509221039 59 0 0.0 0.0 0.00 0.00 0.00 41 1018.6
20260509215234 60 0 0.0 0.0 0.00 0.00 0.00 39 1018.7
20260509213459 61 0 0.0 0.0 0.00 0.00 0.00 37 1018.6
20260509211514 61 0 0.0 0.0 0.00 0.00 0.00 37 1018.3
20260509205739 62 0 0.0 0.0 0.00 0.00 0.00 35 1018.3
20260509204130 62 0 0.0 0.0 0.00 0.00 0.00 34 1018.3
20260509203754 62 0 0.0 0.0 0.00 0.00 0.00 34 1018.3
20260509202029 62 0 0.0 0.0 0.00 0.00 0.00 33 1018.2
20260509200229 62 0 0.0 0.0 0.00 0.00 0.00 33 1018.0
20260509194344 63 0 0.0 0.0 0.00 0.00 0.00 33 1018.0
20260509192717 63 0 0.0 0.0 0.00 0.00 0.00 32 1017.8
20260509191044 64 0 0.0 0.0 0.00 0.00 0.00 32 1017.6
20260509185344 65 0 0.0 0.0 0.00 0.00 0.00 32 1017.7
20260509183534 66 0 0.0 0.0 0.00 0.00 0.00 31 1017.5
20260509181814 66 0 0.0 0.0 0.00 0.00 0.00 32 1017.4
20260509175934 66 0 0.0 0.0 0.00 0.00 0.00 32 1017.3
20260509174202 66 0 0.0 0.0 0.00 0.00 0.00 33 1017.3
20260509172554 68 0 0.0 0.0 0.00 0.00 0.00 33 1017.1
20260509170909 68 0 0.0 0.0 0.00 0.00 0.00 33 1017.2
20260509165154 68 0 0.0 0.0 0.00 0.00 0.00 33 1017.4
20260509163534 69 0 0.0 0.0 0.00 0.00 0.00 33 1017.2
20260509161609 69 0 0.0 0.0 0.00 0.00 0.00 33 1017.2
20260509155814 70 0 0.0 0.0 0.00 0.00 0.00 33 1017.3
20260509154014 70 0 0.0 0.0 0.00 0.00 0.00 32 1017.5
20260509152204 70 0 0.0 0.0 0.00 0.00 0.00 33 1017.4
20260509150514 71 0 0.0 0.0 0.00 0.00 0.00 32 1017.4
20260509144649 71 0 0.0 0.0 0.00 0.00 0.00 33 1017.3
20260509142829 71 0 0.0 0.0 0.00 0.00 0.00 33 1016.9
20260509140914 70 0 0.0 0.0 0.00 0.00 0.00 32 1017.1
20260509134954 71 0 0.0 0.0 0.00 0.00 0.00 33 1017.1
20260509133109 70 0 0.0 0.0 0.00 0.00 0.00 33 1017.2
20260509131304 71 0 0.0 0.0 0.00 0.00 0.00 33 1017.2
20260509125643 71 0 0.0 0.0 0.00 0.00 0.00 34 1017.4